N0ZJT Weather Reports


time (UTC)temp
F
wind
direction
speed
knots
gust
knots
rain 1hr
in
rain 24hr
in
rain mn
in
humidity
%
barometer
mb
20260505101622 46 0 0.0 0.0 0.00 0.00 0.00 50 970.2
20260505100222 46 0 0.0 0.0 0.00 0.00 0.00 50 970.6
20260505094622 46 0 0.0 0.0 0.00 0.00 0.00 50 970.6
20260505093222 46 0 0.0 0.0 0.00 0.00 0.00 49 970.1
20260505091622 46 0 0.0 0.0 0.00 0.00 0.00 48 969.9
20260505090222 46 141 0.0 0.9 0.00 0.00 0.00 47 969.7
20260505084622 46 152 0.9 1.7 0.00 0.00 0.00 47 969.5
20260505083222 47 182 1.7 1.7 0.00 0.00 0.00 46 969.2
20260505081622 47 142 0.0 1.7 0.00 0.00 0.00 46 968.7
20260505080222 47 174 0.9 2.6 0.00 0.00 0.00 46 969.2
20260505074622 47 181 1.7 2.6 0.00 0.00 0.00 45 969.3
20260505073222 48 175 0.9 2.6 0.00 0.00 0.00 45 968.6
20260505071622 48 160 0.0 1.7 0.00 0.00 0.00 45 968.9
20260505070222 48 172 1.7 5.2 0.00 0.00 0.00 44 968.7
20260505064622 49 84 0.9 3.5 0.00 0.00 0.00 43 969.0
20260505063222 49 151 2.6 9.6 0.00 0.00 0.00 43 969.1
20260505061622 50 206 2.6 7.8 0.00 0.00 0.00 43 968.7
20260505060222 50 156 1.7 7.8 0.00 0.00 0.00 43 968.6
20260505054622 50 172 5.2 7.0 0.00 0.00 0.00 42 968.5
20260505053222 51 100 8.7 10.4 0.00 0.00 0.00 43 968.4
20260505051622 51 190 4.3 12.2 0.00 0.00 0.00 42 968.3
20260505050222 52 148 4.3 8.7 0.00 0.00 0.00 42 967.8
20260505041622 53 180 4.3 8.7 0.00 0.00 0.00 41 967.8
20260505040222 53 123 2.6 7.0 0.00 0.00 0.00 42 967.7
20260505034622 54 146 3.5 12.2 0.00 0.00 0.00 41 967.7
20260505033222 54 129 4.3 9.6 0.00 0.00 0.00 41 967.5
20260505031622 55 162 4.3 8.7 0.00 0.00 0.00 41 967.3
20260505030222 56 215 3.5 12.2 0.00 0.00 0.00 41 967.0
20260505024622 57 164 4.3 14.8 0.00 0.00 0.00 39 966.3
20260505023222 58 140 5.2 13.0 0.00 0.00 0.00 39 966.0
20260505021622 58 151 5.2 15.6 0.00 0.00 0.00 38 965.2
20260505020222 59 125 5.2 11.3 0.00 0.00 0.00 37 965.6
20260505014622 59 104 4.3 7.0 0.00 0.00 0.00 36 965.1
20260505013222 59 132 4.3 7.8 0.00 0.00 0.00 35 964.6
20260505011622 60 98 3.5 10.4 0.00 0.00 0.00 33 964.3
20260505010222 61 72 5.2 12.2 0.00 0.00 0.00 32 964.4
20260505004622 62 112 3.5 10.4 0.00 0.00 0.00 33 964.2
20260505003222 63 103 5.2 9.6 0.00 0.00 0.00 32 964.1
20260505001622 64 154 7.0 9.6 0.00 0.00 0.00 31 964.1
20260505000222 65 174 2.6 9.6 0.00 0.00 0.00 29 964.0
20260504234622 66 74 3.5 13.0 0.00 0.00 0.00 28 964.1
20260504233222 68 197 10.4 15.6 0.00 0.00 0.00 28 963.7
20260504231622 69 130 6.1 11.3 0.00 0.00 0.00 30 963.4
20260504230222 71 153 9.6 14.8 0.00 0.00 0.00 28 963.3
20260504224622 72 101 12.2 16.5 0.00 0.00 0.00 29 962.8
20260504223222 73 185 3.5 11.3 0.00 0.00 0.00 28 962.5
20260504221622 74 149 5.2 14.8 0.00 0.00 0.00 27 962.1
20260504220021 75 77 5.2 13.0 0.00 0.00 0.00 27 962.1
20260504214421 75 89 7.0 13.0 0.00 0.00 0.00 27 962.0
20260504212821 77 148 7.0 18.2 0.00 0.00 0.00 27 961.7
20260504212021 77 113 7.8 17.4 0.00 0.00 0.00 26 961.5
20260504211221 78 77 7.8 13.0 0.00 0.00 0.00 26 961.6
20260504210421 78 84 7.8 14.8 0.00 0.00 0.00 26 961.4
20260504205621 78 139 8.7 15.6 0.00 0.00 0.00 26 961.3
20260504205221 78 91 4.3 18.2 0.00 0.00 0.00 27 961.3
20260504204821 79 174 5.2 10.4 0.00 0.00 0.00 28 961.4
20260504204421 79 308 3.5 15.6 0.00 0.00 0.00 27 961.3
20260504204021 79 148 6.1 15.6 0.00 0.00 0.00 29 961.3
20260504203821 79 355 6.1 19.1 0.00 0.00 0.00 27 961.3
20260504203621 79 113 7.0 12.2 0.00 0.00 0.00 29 961.5
20260504203421 80 108 6.1 10.4 0.00 0.00 0.00 28 961.2
20260504203221 79 119 10.4 11.3 0.00 0.00 0.00 29 961.1
20260504203121 79 162 5.2 17.4 0.00 0.00 0.00 29 961.1
20260504203034 79 216 7.8 17.4 0.00 0.00 0.00 29 961.1
20260504202934 79 165 4.3 16.5 0.00 0.00 0.00 31 961.1
20260504202818 79 86 7.0 16.5 0.00 0.00 0.00 30 961.2
20260504202718 79 74 9.6 14.8 0.00 0.00 0.00 31 961.0
20260504202652 79 93 8.7 12.2 0.00 0.00 0.00 30 961.2
20260504202526 79 110 4.3 15.6 0.00 0.00 0.00 29 961.1
20260504202426 80 151 8.7 15.6 0.00 0.00 0.00 29 961.1
20260504202326 80 155 5.2 15.6 0.00 0.00 0.00 29 961.1
20260504202210 80 134 4.3 15.6 0.00 0.00 0.00 29 961.1
20260504202119 80 164 7.0 11.3 0.00 0.00 0.00 30 961.1
20260504201919 80 165 7.0 12.2 0.00 0.00 0.00 30 961.1
20260504201719 80 45 5.2 7.8 0.00 0.00 0.00 32 961.1
20260504201519 80 104 5.2 10.4 0.00 0.00 0.00 31 961.0
20260504201419 80 131 7.0 13.0 0.00 0.00 0.00 33 961.1
20260504201319 80 134 10.4 13.0 0.00 0.00 0.00 31 961.1
20260504201219 80 104 7.0 10.4 0.00 0.00 0.00 30 960.9
20260504201119 80 111 3.5 15.6 0.00 0.00 0.00 31 961.1
20260504195850 80 83 7.8 10.4 0.00 0.00 0.00 32 961.0
20260504194450 81 109 7.8 12.2 0.00 0.00 0.00 30 961.0
20260504192850 81 93 5.2 10.4 0.00 0.00 0.00 31 960.7
20260504191450 81 142 4.3 16.5 0.00 0.00 0.00 32 960.6
20260504185850 82 105 6.1 13.0 0.00 0.00 0.00 28 960.6
20260504184450 80 91 5.2 15.6 0.00 0.00 0.00 28 960.6
20260504182850 81 93 11.3 12.2 0.00 0.00 0.00 31 960.7
20260504181450 80 104 9.6 16.5 0.00 0.00 0.00 31 960.7
20260504175850 79 37 12.2 16.5 0.00 0.00 0.00 30 960.7
20260504174450 78 69 5.2 9.6 0.00 0.00 0.00 32 960.8
20260504172850 77 114 8.7 15.6 0.00 0.00 0.00 31 961.0
20260504171450 77 82 5.2 11.3 0.00 0.00 0.00 32 961.0